FW1526 Weather Reports


Display with metric or nautical units.
time (UTC)temp
F
wind
direction
speed
MPH
gust
MPH
rain 1hr
in
rain 24hr
in
rain mn
in
humidity
%
barometer
mb
20260508020220 71 352 9.0 18.0 0.00 0.00 0.00 21 1014.4
20260508015734 71 48 9.0 18.0 0.00 0.00 0.00 20 1014.4
20260508015227 72 343 8.0 17.0 0.00 0.00 0.00 20 1014.4
20260508014721 72 358 11.0 17.0 0.00 0.00 0.00 20 1014.4
20260508013228 72 330 13.0 19.0 0.00 0.00 0.00 19 1014.4
20260508011726 73 335 12.0 20.0 0.00 0.00 0.00 18 1014.5
20260508011220 74 4 6.0 19.0 0.00 0.00 0.00 18 1014.5
20260508010734 74 335 6.0 19.0 0.00 0.00 0.00 18 1014.5
20260508010227 74 15 7.0 18.0 0.00 0.00 0.00 17 1014.6
20260508005721 73 10 12.0 24.0 0.00 0.00 0.00 17 1014.6
20260508005215 73 20 9.0 24.0 0.00 0.00 0.00 18 1014.5
20260508004729 73 334 12.0 22.0 0.00 0.00 0.00 17 1014.7
20260508004224 73 80 12.0 23.0 0.00 0.00 0.00 17 1014.5
20260508003721 73 14 12.0 23.0 0.00 0.00 0.00 16 1014.5
20260508002227 74 339 10.0 21.0 0.00 0.00 0.00 17 1014.4
20260508001720 74 341 13.0 21.0 0.00 0.00 0.00 17 1014.4
20260508001233 74 50 6.0 23.0 0.00 0.00 0.00 17 1014.3
20260508000727 74 58 10.0 23.0 0.00 0.00 0.00 17 1014.3
20260508000221 74 12 12.0 23.0 0.00 0.00 0.00 17 1014.3
20260507235718 74 7 13.0 23.0 0.00 0.00 0.00 17 1014.1
20260507235234 75 2 9.0 27.0 0.00 0.00 0.00 18 1014.1
20260507234727 74 322 18.0 27.0 0.00 0.00 0.00 18 1014.0
20260507233715 75 336 12.0 27.0 0.00 0.00 0.00 18 1013.8
20260507233231 75 74 7.0 27.0 0.00 0.00 0.00 18 1014.0
20260507232724 75 55 13.0 24.0 0.00 0.00 0.00 18 1014.0
20260507231714 75 14 14.0 24.0 0.00 0.00 0.00 19 1014.0
20260507231233 76 2 10.0 27.0 0.00 0.00 0.00 18 1014.1
20260507230726 75 76 9.0 27.0 0.00 0.00 0.00 20 1014.1
20260507225717 76 13 12.0 21.0 0.00 0.00 0.00 19 1014.4
20260507225231 76 8 12.0 25.0 0.00 0.00 0.00 19 1014.3
20260507223717 76 313 12.0 25.0 0.00 0.00 0.00 20 1014.6
20260507223232 76 69 9.0 20.0 0.00 0.00 0.00 20 1014.5
20260507222730 76 31 5.0 19.0 0.00 0.00 0.00 20 1014.6
20260507222224 76 351 10.0 19.0 0.00 0.00 0.00 20 1014.7
20260507221717 76 99 5.0 17.0 0.00 0.00 0.00 21 1014.7
20260507221231 76 39 5.0 23.0 0.00 0.00 0.00 21 1014.7
20260507220725 76 341 11.0 23.0 0.00 0.00 0.00 21 1014.7
20260507220219 76 359 7.0 17.0 0.00 0.00 0.00 21 1014.8
20260507215226 77 36 6.0 13.0 0.00 0.00 0.00 22 1014.8
20260507214723 77 100 4.0 10.0 0.00 0.00 0.00 22 1014.9
20260507214216 77 40 5.0 9.0 0.00 0.00 0.00 23 1014.9
20260507213729 76 61 3.0 14.0 0.00 0.00 0.00 22 1014.9
20260507213223 76 88 4.0 14.0 0.00 0.00 0.00 23 1015.0
20260507212232 76 360 5.0 14.0 0.00 0.00 0.00 22 1015.1
20260507211222 76 354 5.0 13.0 0.00 0.00 0.00 20 1015.1
20260507210720 76 1 3.0 12.0 0.00 0.00 0.00 20 1015.2
20260507205226 76 121 6.0 17.0 0.00 0.00 0.00 22 1015.3
20260507204719 76 97 6.0 12.0 0.00 0.00 0.00 22 1015.3
20260507204233 76 353 4.0 12.0 0.00 0.00 0.00 20 1015.4
20260507203725 76 266 3.0 15.0 0.00 0.00 0.00 22 1015.4
20260507203220 75 112 3.0 15.0 0.00 0.00 0.00 22 1015.3
20260507202717 76 231 4.0 14.0 0.00 0.00 0.00 24 1015.5
20260507202232 77 94 5.0 14.0 0.00 0.00 0.00 25 1015.4
20260507201223 76 109 0.0 4.0 0.00 0.00 0.00 27 1015.5
20260507200717 74 102 1.0 7.0 0.00 0.00 0.00 28 1015.6
20260507200232 74 42 2.0 7.0 0.00 0.00 0.00 27 1015.7
20260507195220 74 129 4.0 6.0 0.00 0.00 0.00 31 1015.8
20260507194734 74 45 4.0 6.0 0.00 0.00 0.00 27 1015.8
20260507194233 74 95 0.0 4.0 0.00 0.00 0.00 29 1015.9
20260507193726 73 130 2.0 8.0 0.00 0.00 0.00 27 1016.0
20260507193221 73 114 3.0 8.0 0.00 0.00 0.00 28 1016.0
20260507191729 72 99 0.0 7.0 0.00 0.00 0.00 29 1016.1
20260507191223 71 335 2.0 7.0 0.00 0.00 0.00 29 1016.2
20260507190716 72 334 2.0 5.0 0.00 0.00 0.00 30 1016.1
20260507190231 70 159 1.0 4.0 0.00 0.00 0.00 31 1016.3
20260507185728 70 187 2.0 8.0 0.00 0.00 0.00 32 1016.5
20260507185222 69 336 0.0 12.0 0.00 0.00 0.00 33 1016.5
20260507184716 69 307 6.0 12.0 0.00 0.00 0.00 32 1016.5
20260507184232 69 277 1.0 6.0 0.00 0.00 0.00 32 1016.6
20260507183220 69 174 1.0 6.0 0.00 0.00 0.00 33 1016.7
20260507182733 68 210 3.0 6.0 0.00 0.00 0.00 34 1016.7
20260507181727 68 115 4.0 8.0 0.00 0.00 0.00 35 1016.8
20260507181221 69 178 0.0 4.0 0.00 0.00 0.00 35 1016.8
20260507180735 68 231 0.0 4.0 0.00 0.00 0.00 36 1016.8
20260507180230 68 125 0.0 4.0 0.00 0.00 0.00 36 1016.9
20260507175722 68 147 0.0 4.0 0.00 0.00 0.00 38 1017.0
20260507174230 67 124 0.0 5.0 0.00 0.00 0.00 38 1017.0
20260507173722 66 152 2.0 5.0 0.00 0.00 0.00 38 1017.1
20260507173221 66 73 0.0 2.0 0.00 0.00 0.00 39 1017.2
20260507172734 65 158 0.0 4.0 0.00 0.00 0.00 42 1017.2
20260507172228 65 120 2.0 5.0 0.00 0.00 0.00 43 1017.1
20260507171217 64 112 2.0 5.0 0.00 0.00 0.00 43 1017.2
20260507170731 64 142 1.0 5.0 0.00 0.00 0.00 44 1017.2
20260507170226 63 128 3.0 6.0 0.00 0.00 0.00 45 1017.3
20260507165717 63 168 3.0 6.0 0.00 0.00 0.00 45 1017.2
20260507165216 63 119 1.0 4.0 0.00 0.00 0.00 47 1017.3
20260507164730 63 114 2.0 4.0 0.00 0.00 0.00 46 1017.3
20260507164223 63 156 1.0 4.0 0.00 0.00 0.00 47 1017.3
20260507163717 63 133 0.0 3.0 0.00 0.00 0.00 48 1017.3
20260507163232 62 230 1.0 5.0 0.00 0.00 0.00 49 1017.3
20260507162725 61 273 1.0 5.0 0.00 0.00 0.00 49 1017.3
20260507160731 61 97 1.0 3.0 0.00 0.00 0.00 51 1017.5
20260507160224 61 166 0.0 3.0 0.00 0.00 0.00 52 1017.5
20260507155718 60 200 0.0 2.0 0.00 0.00 0.00 53 1017.5
20260507155233 60 106 0.0 2.0 0.00 0.00 0.00 53 1017.6
20260507154728 60 116 1.0 4.0 0.00 0.00 0.00 54 1017.6
20260507154221 59 119 1.0 4.0 0.00 0.00 0.00 54 1017.7
20260507153736 59 168 0.0 3.0 0.00 0.00 0.00 56 1017.6
20260507152729 58 102 0.0 4.0 0.00 0.00 0.00 59 1017.6
20260507151716 58 159 0.0 3.0 0.00 0.00 0.00 57 1017.6
20260507151229 57 226 0.0 4.0 0.00 0.00 0.00 61 1017.6
20260507150725 57 178 1.0 4.0 0.00 0.00 0.00 61 1017.6
20260507150221 57 136 2.0 4.0 0.00 0.00 0.00 63 1017.6
20260507145734 56 131 0.0 2.0 0.00 0.00 0.00 62 1017.6
20260507145227 54 123 0.0 2.0 0.00 0.00 0.00 65 1017.6
20260507144719 53 199 0.0 1.0 0.00 0.00 0.00 67 1017.6
20260507144232 52 265 0.0 1.0 0.00 0.00 0.00 67 1017.6
20260507143723 52 264 0.0 0.0 0.00 0.00 0.00 68 1017.6
20260507143235 51 264 0.0 0.0 0.00 0.00 0.00 68 1017.6
20260507141725 49 262 0.0 2.0 0.00 0.00 0.00 71 1017.5
20260507141219 48 237 1.0 2.0 0.00 0.00 0.00 72 1017.5
20260507140733 47 272 0.0 0.0 0.00 0.00 0.00 73 1017.5
20260507140226 47 272 0.0 1.0 0.00 0.00 0.00 75 1017.3
20260507135719 46 272 0.0 2.0 0.00 0.00 0.00 76 1017.3
20260507135234 45 284 0.0 3.0 0.00 0.00 0.00 77 1017.2
20260507134727 44 261 1.0 2.0 0.00 0.00 0.00 79 1017.2
20260507134226 43 242 0.0 2.0 0.00 0.00 0.00 81 1017.1
20260507133720 43 216 1.0 2.0 0.00 0.00 0.00 82 1017.1
20260507133234 43 241 1.0 2.0 0.00 0.00 0.00 82 1017.1
20260507132727 43 262 1.0 2.0 0.00 0.00 0.00 82 1017.1
20260507132222 43 268 0.0 1.0 0.00 0.00 0.00 83 1017.0
20260507131735 43 254 0.0 2.0 0.00 0.00 0.00 83 1016.9
20260507131230 43 285 0.0 2.0 0.00 0.00 0.00 83 1016.9
20260507130224 43 197 0.0 1.0 0.00 0.00 0.00 82 1016.8
20260507125718 43 245 1.0 1.0 0.00 0.00 0.00 82 1016.9
20260507125233 44 201 0.0 2.0 0.00 0.00 0.00 81 1016.7
20260507124726 44 228 0.0 4.0 0.00 0.00 0.00 81 1016.7
20260507124221 44 218 2.0 4.0 0.00 0.00 0.00 81 1016.7
20260507123735 44 173 0.0 3.0 0.00 0.00 0.00 82 1016.6
20260507122220 44 254 2.0 5.0 0.00 0.00 0.00 81 1016.8
20260507121718 45 258 2.0 4.0 0.00 0.00 0.00 79 1016.8
20260507121233 45 212 1.0 4.0 0.00 0.00 0.00 78 1016.8
20260507120727 46 213 2.0 3.0 0.00 0.00 0.00 77 1016.8
20260507120220 46 258 1.0 4.0 0.00 0.00 0.00 78 1016.8
20260507115733 46 277 0.0 3.0 0.00 0.00 0.00 78 1016.8
20260507115227 45 320 0.0 3.0 0.00 0.00 0.00 78 1016.9
20260507114719 46 262 0.0 2.0 0.00 0.00 0.00 78 1016.9
20260507114218 46 277 0.0 2.0 0.00 0.00 0.00 79 1016.9
20260507113732 46 299 1.0 2.0 0.00 0.00 0.00 80 1017.0
20260507113225 45 275 2.0 2.0 0.00 0.00 0.00 80 1016.9
20260507112719 45 261 1.0 2.0 0.00 0.00 0.00 79 1016.9
20260507112234 46 264 1.0 3.0 0.00 0.00 0.00 78 1016.9
20260507111727 46 259 2.0 3.0 0.00 0.00 0.00 77 1016.9
20260507111222 46 258 2.0 3.0 0.00 0.00 0.00 79 1017.0
20260507110715 47 268 2.0 3.0 0.00 0.00 0.00 79 1016.9
20260507110234 47 255 0.0 0.0 0.00 0.00 0.00 79 1017.0
20260507105726 47 258 0.0 0.0 0.00 0.00 0.00 79 1017.0
20260507105220 47 198 0.0 0.0 0.00 0.00 0.00 79 1017.1
20260507104733 47 261 0.0 0.0 0.00 0.00 0.00 79 1017.1
20260507104227 47 221 0.0 0.0 0.00 0.00 0.00 79 1017.1
20260507103217 48 256 0.0 2.0 0.00 0.00 0.00 76 1017.0
20260507102732 49 232 0.0 2.0 0.00 0.00 0.00 76 1017.0
20260507101725 49 264 0.0 0.0 0.00 0.00 0.00 76 1017.1
20260507101217 49 215 0.0 0.0 0.00 0.00 0.00 76 1017.1
20260507100733 49 317 0.0 0.0 0.00 0.00 0.00 76 1017.1
20260507095720 50 263 0.0 0.0 0.00 0.00 0.00 77 1017.1
20260507095234 50 256 0.0 0.0 0.00 0.00 0.00 76 1017.2
20260507094730 50 204 0.0 0.0 0.00 0.00 0.00 75 1017.2
20260507094224 51 186 0.0 0.0 0.00 0.00 0.00 74 1017.2
20260507093226 52 256 0.0 0.0 0.00 0.00 0.00 72 1017.2
20260507092717 52 267 0.0 0.0 0.00 0.00 0.00 73 1017.2
20260507092232 52 267 0.0 0.0 0.00 0.00 0.00 72 1017.2
20260507091727 53 280 0.0 0.0 0.00 0.00 0.00 71 1017.2
20260507091221 53 280 0.0 0.0 0.00 0.00 0.00 70 1017.3
20260507090735 54 280 0.0 0.0 0.00 0.00 0.00 69 1017.2
20260507090230 54 280 0.0 0.0 0.00 0.00 0.00 68 1017.2
20260507085724 54 277 0.0 0.0 0.00 0.00 0.00 69 1017.3
20260507085223 55 277 0.0 4.0 0.00 0.00 0.00 67 1017.3
20260507084717 55 239 1.0 6.0 0.00 0.00 0.00 67 1017.3
20260507084230 56 285 4.0 6.0 0.00 0.00 0.00 67 1017.3
20260507083725 56 285 1.0 4.0 0.00 0.00 0.00 66 1017.2
20260507083220 56 251 1.0 4.0 0.00 0.00 0.00 66 1017.2
20260507082734 56 283 0.0 4.0 0.00 0.00 0.00 66 1017.2
20260507082227 56 284 0.0 4.0 0.00 0.00 0.00 66 1017.3
20260507081727 56 274 1.0 4.0 0.00 0.00 0.00 66 1017.3
20260507081221 56 317 0.0 5.0 0.00 0.00 0.00 66 1017.4
20260507080735 56 275 1.0 6.0 0.00 0.00 0.00 66 1017.5
20260507080227 56 274 4.0 6.0 0.00 0.00 0.00 67 1017.5
20260507075722 56 285 0.0 4.0 0.00 0.00 0.00 66 1017.6
20260507075216 56 264 0.0 5.0 0.00 0.00 0.00 66 1017.6
20260507074730 57 254 1.0 5.0 0.00 0.00 0.00 65 1017.6
20260507074224 56 271 1.0 5.0 0.00 0.00 0.00 66 1017.6
20260507073722 57 264 0.0 4.0 0.00 0.00 0.00 63 1017.7
20260507072733 57 198 0.0 0.0 0.00 0.00 0.00 62 1017.7
20260507071723 58 268 0.0 1.0 0.00 0.00 0.00 62 1017.7
20260507071217 58 225 0.0 4.0 0.00 0.00 0.00 61 1017.6
20260507070732 58 198 1.0 4.0 0.00 0.00 0.00 61 1017.6
20260507065223 59 100 0.0 0.0 0.00 0.00 0.00 60 1017.6
20260507064234 59 102 0.0 0.0 0.00 0.00 0.00 58 1017.6
20260507063728 59 173 0.0 0.0 0.00 0.00 0.00 58 1017.7
20260507063222 59 173 0.0 0.0 0.00 0.00 0.00 57 1017.8
20260507062716 59 173 0.0 1.0 0.00 0.00 0.00 57 1017.7
20260507062232 60 186 0.0 1.0 0.00 0.00 0.00 56 1017.7
20260507061724 60 267 0.0 0.0 0.00 0.00 0.00 55 1017.7
20260507061222 61 358 0.0 0.0 0.00 0.00 0.00 55 1017.7
20260507060735 61 274 0.0 0.0 0.00 0.00 0.00 54 1017.8
20260507060227 61 350 0.0 5.0 0.00 0.00 0.00 54 1017.8
20260507055721 61 50 0.0 6.0 0.00 0.00 0.00 53 1017.8
20260507055215 61 95 1.0 7.0 0.00 0.00 0.00 53 1017.8
20260507054728 61 346 0.0 7.0 0.00 0.00 0.00 54 1017.9
20260507054222 61 80 1.0 7.0 0.00 0.00 0.00 55 1018.0
20260507053716 61 76 0.0 2.0 0.00 0.00 0.00 56 1018.0
20260507053215 61 119 0.0 3.0 0.00 0.00 0.00 55 1018.1
20260507052728 61 19 0.0 3.0 0.00 0.00 0.00 55 1018.1
20260507052222 61 176 0.0 4.0 0.00 0.00 0.00 54 1018.0
20260507045719 62 5 0.0 0.0 0.00 0.00 0.00 51 1018.2
20260507044731 63 344 0.0 1.0 0.00 0.00 0.00 49 1018.2
20260507044228 63 50 0.0 0.0 0.00 0.00 0.00 49 1018.1
20260507043219 63 65 0.0 2.0 0.00 0.00 0.00 47 1018.1
20260507042732 64 69 1.0 5.0 0.00 0.00 0.00 46 1018.1
20260507042227 64 107 1.0 5.0 0.00 0.00 0.00 45 1018.1
20260507041720 64 88 1.0 7.0 0.00 0.00 0.00 44 1018.0
20260507041235 64 98 2.0 9.0 0.00 0.00 0.00 44 1017.9
20260507040727 65 130 3.0 10.0 0.00 0.00 0.00 43 1018.0
20260507040225 65 22 3.0 11.0 0.00 0.00 0.00 42 1017.9
20260507035215 65 10 5.0 14.0 0.00 0.00 0.00 41 1017.7
20260507034728 66 342 6.0 12.0 0.00 0.00 0.00 41 1017.6
20260507034221 66 121 5.0 10.0 0.00 0.00 0.00 40 1017.6
20260507033734 66 32 4.0 8.0 0.00 0.00 0.00 41 1017.6
20260507033230 66 97 3.0 9.0 0.00 0.00 0.00 41 1017.6
20260507032721 67 90 3.0 10.0 0.00 0.00 0.00 41 1017.5
20260507032219 67 88 5.0 12.0 0.00 0.00 0.00 41 1017.5
20260507031732 67 123 5.0 12.0 0.00 0.00 0.00 40 1017.3
20260507031226 67 105 3.0 12.0 0.00 0.00 0.00 39 1017.3
20260507030216 68 74 4.0 9.0 0.00 0.00 0.00 37 1017.2
20260507025732 69 69 3.0 9.0 0.00 0.00 0.00 36 1017.2
20260507025224 69 353 4.0 13.0 0.00 0.00 0.00 35 1017.2
20260507024718 69 31 4.0 13.0 0.00 0.00 0.00 35 1017.1
20260507024216 69 17 4.0 15.0 0.00 0.00 0.00 35 1017.1
20260507023731 69 60 8.0 16.0 0.00 0.00 0.00 34 1016.9
20260507023225 69 23 7.0 18.0 0.00 0.00 0.00 35 1016.9
20260507022716 69 2 5.0 20.0 0.00 0.00 0.00 35 1016.9
20260507022231 69 22 9.0 20.0 0.00 0.00 0.00 34 1016.9
20260507021723 70 27 10.0 18.0 0.00 0.00 0.00 34 1016.8
20260507021216 70 100 6.0 16.0 0.00 0.00 0.00 34 1016.8
20260507020731 70 22 8.0 18.0 0.00 0.00 0.00 34 1016.7